Date String (YYYY-MM-DD hh:mm:ss) UTC,Instrument flags,Ambient pressure (hPa),Sample flow (lpm),Bypass flow (lpm),Sample temperature (°C),Ambient temperature (°C),ASC tube jacket temperature (°C),LED temperature (°C),Box temperature (°C),Sample RH (%),Span deviation,Mass concentration (μg/m³),Mass concentration (μg/m³),Mass concentration (μg/m³)
DateTimeUTC,F1_M11,P_M11,Q1_M11,Q2_M11,T1_M11,T2_M11,T3_M11,T4_M11,T5_M11,U1_M11,ZSPAN_M11,X0_M11,X2_M11,X1_M11
2022-06-16 22:00:00,,0827.9,5.00,0.00,29.1,27.3,00.0,37.8,30.9,19.7,0000.0,0032.58,0007.24,0004.11
2022-06-16 22:01:00,,0827.9,5.00,0.00,29.1,27.0,00.0,37.8,30.8,19.4,0000.0,0032.32,0007.24,0004.10
2022-06-16 22:02:00,,0827.9,4.99,0.00,29.0,27.0,00.0,37.8,30.9,18.9,0000.0,0031.21,0007.15,0004.10
2022-06-16 22:03:00,,0827.8,5.00,0.00,29.0,27.2,00.0,37.8,30.9,19.0,0000.0,0031.12,0007.14,0004.10
2022-06-16 22:04:00,,0827.8,5.00,0.00,29.0,27.4,00.0,37.8,31.0,19.0,0000.0,0030.44,0007.10,0004.12
2022-06-16 22:05:00,,0827.8,5.00,0.00,29.0,27.6,00.0,37.8,31.0,18.8,0000.0,0031.13,0007.03,0004.14
2022-06-16 22:06:00,,0827.8,5.00,0.00,29.1,27.8,00.0,37.8,31.1,19.0,0000.0,0030.23,0007.06,0004.16
2022-06-16 22:07:00,,0827.8,5.00,0.00,29.1,28.0,00.0,37.8,31.2,18.6,0000.0,0029.12,0007.02,0004.18
2022-06-16 22:08:00,,0827.8,5.01,0.00,29.2,28.2,00.0,37.9,31.3,18.5,0001.2,0028.49,0007.08,0004.20
2022-06-16 22:09:00,,0827.8,5.01,0.00,29.2,28.2,00.0,37.9,31.2,18.5,0000.0,0028.40,0007.09,0004.22
2022-06-16 22:10:00,,0827.8,5.00,0.00,29.2,27.4,00.0,37.8,31.0,18.6,0000.4,0026.89,0007.15,0004.26
2022-06-16 22:11:00,,0827.7,5.00,0.00,29.1,27.0,00.0,37.8,30.9,18.7,0001.1,0027.92,0007.19,0004.29
2022-06-16 22:12:00,,0827.7,5.01,0.00,29.1,27.0,00.0,37.8,30.9,18.6,0002.7,0029.11,0007.24,0004.32
2022-06-16 22:13:00,,0827.7,5.01,0.00,29.1,27.2,00.0,37.8,30.9,18.8,0003.1,0030.58,0007.28,0004.34
2022-06-16 22:14:00,,0827.7,5.00,0.00,29.1,27.4,00.0,37.8,31.0,18.7,0003.2,0032.73,0007.33,0004.37
2022-06-16 22:15:00,,0827.7,4.99,0.00,29.1,27.6,00.0,37.8,31.0,19.5,0002.4,0034.13,0007.33,0004.36
2022-06-16 22:16:00,,0827.7,5.00,0.00,29.1,27.8,00.0,37.8,31.1,18.6,0000.1,0036.14,0007.40,0004.37
2022-06-16 22:17:00,,0827.7,5.01,0.00,29.2,28.0,00.0,37.9,31.2,18.9,0000.4,0035.87,0007.41,0004.38
2022-06-16 22:18:00,,0827.7,5.00,0.00,29.2,28.2,00.0,37.9,31.3,18.2,0001.0,0036.49,0007.47,0004.39
2022-06-16 22:19:00,,0827.7,5.00,0.00,29.2,27.8,00.0,37.8,31.2,17.9,0000.3,0035.91,0007.42,0004.39
2022-06-16 22:20:00,,0827.7,5.00,0.00,29.1,27.1,00.0,37.8,31.0,18.2,0000.0,0034.48,0007.43,0004.40
2022-06-16 22:21:00,,0827.7,5.00,0.00,29.1,27.0,00.0,37.8,30.9,18.4,0000.0,0034.19,0007.37,0004.40
2022-06-16 22:22:00,,0827.7,5.01,0.00,29.1,27.1,00.0,37.8,30.9,19.0,0000.0,0033.54,0007.44,0004.41
2022-06-16 22:23:00,,0827.7,5.00,0.00,29.0,27.3,00.0,37.8,30.9,19.2,0000.0,0032.79,0007.43,0004.42
2022-06-16 22:24:00,,0827.7,5.00,0.00,29.0,27.5,00.0,37.8,31.0,19.1,0000.0,0032.09,0007.44,0004.42
2022-06-16 22:25:00,,0827.7,5.00,0.00,29.1,27.7,00.0,37.8,31.1,18.8,0000.0,0031.46,0007.40,0004.41
2022-06-16 22:26:00,,0827.7,5.00,0.00,29.1,27.9,00.0,37.8,31.1,18.2,0000.0,0029.86,0007.40,0004.41
2022-06-16 22:27:00,,0827.7,5.00,0.00,29.2,28.1,00.0,37.8,31.2,18.1,0000.0,0027.29,0007.39,0004.41
2022-06-16 22:28:00,,0827.7,5.01,0.00,29.2,28.1,00.0,37.9,31.2,18.3,0000.0,0026.86,0007.38,0004.40
2022-06-16 22:29:00,,0827.7,5.01,0.00,29.2,27.5,00.0,37.8,31.0,18.2,0000.0,0025.85,0007.34,0004.39
2022-06-16 22:30:00,,0827.6,5.00,0.00,29.1,27.0,00.0,37.8,30.9,17.9,0000.0,0025.28,0007.34,0004.37
2022-06-16 22:31:00,,0827.5,5.00,0.00,29.0,27.0,00.0,37.8,30.9,17.7,0000.0,0024.89,0007.28,0004.35
2022-06-16 22:32:00,,0827.5,5.00,0.00,29.0,27.1,00.0,37.8,30.9,17.8,0000.0,0026.58,0007.33,0004.35
2022-06-16 22:33:00,,0827.5,5.01,0.00,29.0,27.3,00.0,37.8,30.9,17.4,0000.0,0027.33,0007.31,0004.34
2022-06-16 22:34:00,,0827.5,5.00,0.00,29.0,27.5,00.0,37.8,31.0,17.2,0000.0,0027.30,0007.30,0004.34
2022-06-16 22:35:00,,0827.5,5.01,0.00,29.1,27.7,00.0,37.8,31.1,17.3,0002.0,0027.76,0007.27,0004.31
2022-06-16 22:36:00,,0827.6,4.99,0.00,29.1,28.0,00.0,37.8,31.2,17.5,0001.9,0026.72,0007.27,0004.30
2022-06-16 22:37:00,,0827.6,5.00,0.00,29.2,28.2,00.0,37.8,31.2,18.3,0001.5,0027.92,0007.22,0004.30
2022-06-16 22:38:00,,0827.5,5.00,0.00,29.2,28.3,00.0,37.9,31.3,18.0,0000.4,0027.70,0007.16,0004.28
2022-06-16 22:39:00,,0827.5,4.99,0.00,29.2,27.7,00.0,37.8,31.1,17.5,0000.0,0027.96,0007.11,0004.26
2022-06-16 22:40:00,,0827.5,5.02,0.00,29.1,27.1,00.0,37.8,30.9,17.1,0000.0,0027.50,0007.07,0004.24
2022-06-16 22:41:00,,0827.5,5.00,0.00,29.1,27.1,00.0,37.8,30.9,17.3,0000.0,0029.08,0007.06,0004.24
2022-06-16 22:42:00,,0827.5,5.00,0.00,29.1,27.2,00.0,37.8,30.9,17.2,0000.0,0029.59,0007.02,0004.23
2022-06-16 22:43:00,,0827.4,5.00,0.00,29.1,27.4,00.0,37.8,31.0,18.1,0000.0,0029.00,0007.00,0004.20
2022-06-16 22:44:00,,0827.5,4.99,0.00,29.1,27.6,00.0,37.8,31.0,17.1,0000.0,0029.59,0006.89,0004.18
2022-06-16 22:45:00,,0827.5,5.00,0.00,29.1,27.8,00.0,37.8,31.1,16.9,0000.0,0028.78,0006.77,0004.14
2022-06-16 22:46:00,,0827.5,5.00,0.00,29.1,28.0,00.0,37.8,31.2,17.0,0000.0,0029.01,0006.72,0004.14
2022-06-16 22:47:00,,0827.5,5.00,0.00,29.2,28.2,00.0,37.9,31.3,17.0,0000.0,0030.25,0006.63,0004.13
2022-06-16 22:48:00,,0827.5,4.99,0.00,29.2,28.1,00.0,37.9,31.2,16.9,0000.0,0028.51,0006.55,0004.11
2022-06-16 22:49:00,,0827.5,4.99,0.00,29.2,27.4,00.0,37.8,31.0,17.6,0000.0,0027.88,0006.54,0004.11
2022-06-16 22:50:00,,0827.5,4.99,0.00,29.1,27.1,00.0,37.8,30.9,17.4,0000.0,0027.24,0006.57,0004.11
2022-06-16 22:51:00,,0827.5,5.02,0.00,29.1,27.1,00.0,37.8,30.9,17.1,0000.0,0027.79,0006.53,0004.11
2022-06-16 22:52:00,,0827.5,5.00,0.00,29.1,27.3,00.0,37.8,30.9,17.4,0000.0,0028.14,0006.48,0004.10
2022-06-16 22:53:00,,0827.5,5.00,0.00,29.1,27.5,00.0,37.8,31.0,18.5,0000.0,0026.69,0006.43,0004.09
2022-06-16 22:54:00,,0827.5,5.00,0.00,29.1,27.7,00.0,37.8,31.1,17.9,-000.0,0027.45,0006.34,0004.10
2022-06-16 22:55:00,,0827.5,4.99,0.00,29.1,27.9,00.0,37.8,31.2,17.3,0000.3,0026.35,0006.35,0004.10
2022-06-16 22:56:00,,0827.5,5.00,0.00,29.2,28.1,00.0,37.9,31.2,17.1,0001.3,0027.63,0006.37,0004.10
2022-06-16 22:57:00,,0827.5,5.01,0.00,29.2,28.3,00.0,37.9,31.3,17.2,0002.3,0026.45,0006.34,0004.09
2022-06-16 22:58:00,,0827.5,5.00,0.00,29.2,27.8,00.0,37.9,31.2,17.7,0002.9,0023.95,0006.38,0004.10
2022-06-16 22:59:00,,0827.4,5.00,0.00,29.1,27.2,00.0,37.8,31.0,17.8,0003.7,0025.47,0006.43,0004.10
